Time,TemperatureF,DewpointF,PressureIn,WindDirection,WindDirectionDegrees,WindSpeedMPH,WindSpeedGustMPH,Humidity,HourlyPrecipIn,Conditions,Clouds,dailyrainin,SolarRadiationWatts/m^2,SoftwareType,DateUTC
2013-07-02 00:01:00,75.0,60.0,-100.00,WNW,289,9.0,19.0,59,0.00,,,0.00,0.000000,,2013-07-02 07:01:00,
2013-07-02 00:11:00,75.0,60.0,-100.00,WNW,289,9.0,19.0,59,0.00,,,0.00,0.000000,,2013-07-02 07:11:00,
2013-07-02 00:44:00,74.0,61.0,-100.00,WNW,287,10.0,19.0,64,0.00,,,0.00,0.000000,,2013-07-02 07:44:00,
2013-07-02 00:53:00,74.0,61.0,-100.00,WNW,287,10.0,19.0,64,0.00,,,0.00,0.000000,,2013-07-02 07:53:00,
2013-07-02 01:02:00,74.0,61.0,-100.00,WNW,287,10.0,19.0,64,0.00,,,0.00,0.000000,,2013-07-02 08:02:00,
2013-07-02 01:11:00,74.0,61.0,-100.00,WNW,287,10.0,19.0,64,0.00,,,0.00,0.000000,,2013-07-02 08:11:00,
2013-07-02 01:44:00,71.0,62.0,-100.00,NW,304,6.0,16.0,72,0.00,,,0.00,0.000000,,2013-07-02 08:44:00,
2013-07-02 01:53:00,71.0,62.0,-100.00,NW,304,6.0,16.0,72,0.00,,,0.00,0.000000,,2013-07-02 08:53:00,
2013-07-02 02:01:00,71.0,62.0,-100.00,NW,304,6.0,16.0,72,0.00,,,0.00,0.000000,,2013-07-02 09:01:00,
2013-07-02 02:11:00,71.0,62.0,-100.00,NW,304,6.0,16.0,72,0.00,,,0.00,0.000000,,2013-07-02 09:11:00,
2013-07-02 02:43:00,71.0,61.0,-100.00,WNW,297,7.0,15.0,71,0.00,,,-99.99,0.000000,,2013-07-02 09:43:00,
2013-07-02 02:52:00,71.0,61.0,-100.00,WNW,297,7.0,15.0,71,0.00,,,-99.99,0.000000,,2013-07-02 09:52:00,
2013-07-02 03:01:00,71.0,61.0,-100.00,WNW,297,7.0,15.0,71,0.00,,,-99.99,0.000000,,2013-07-02 10:01:00,
2013-07-02 03:11:00,71.0,61.0,-100.00,WNW,297,7.0,15.0,71,0.00,,,-99.99,0.000000,,2013-07-02 10:11:00,
2013-07-02 03:44:00,71.0,62.0,-100.00,WNW,290,9.0,19.0,72,0.00,,,-99.99,0.000000,,2013-07-02 10:44:00,
2013-07-02 03:52:00,71.0,62.0,-100.00,WNW,290,9.0,19.0,72,0.00,,,-99.99,0.000000,,2013-07-02 10:52:00,
2013-07-02 04:01:00,71.0,62.0,-100.00,WNW,290,9.0,19.0,72,0.00,,,-99.99,0.000000,,2013-07-02 11:01:00,
2013-07-02 04:11:00,71.0,62.0,-100.00,WNW,290,9.0,19.0,72,0.00,,,-99.99,0.000000,,2013-07-02 11:11:00,
2013-07-02 04:33:00,70.0,62.0,-100.00,WNW,303,6.0,18.0,77,0.00,,,0.00,0.000000,,2013-07-02 11:33:00,
2013-07-02 04:42:00,70.0,62.0,-100.00,WNW,303,6.0,18.0,77,0.00,,,0.00,0.000000,,2013-07-02 11:42:00,
2013-07-02 04:52:00,70.0,62.0,-100.00,WNW,303,6.0,18.0,77,0.00,,,0.00,0.000000,,2013-07-02 11:52:00,
2013-07-02 05:01:00,70.0,62.0,-100.00,WNW,303,6.0,18.0,77,0.00,,,0.00,0.000000,,2013-07-02 12:01:00,
2013-07-02 05:11:00,70.0,62.0,-100.00,WNW,303,6.0,18.0,77,0.00,,,0.00,0.000000,,2013-07-02 12:11:00,
2013-07-02 05:43:00,70.0,62.0,-100.00,WNW,297,8.0,18.0,77,0.00,,,0.00,0.000000,,2013-07-02 12:43:00,
2013-07-02 05:52:00,70.0,62.0,-100.00,WNW,297,8.0,18.0,77,0.00,,,0.00,0.000000,,2013-07-02 12:52:00,
2013-07-02 06:01:00,70.0,62.0,-100.00,WNW,297,8.0,18.0,77,0.00,,,0.00,0.000000,,2013-07-02 13:01:00,
2013-07-02 06:11:00,70.0,62.0,-100.00,WNW,297,8.0,18.0,77,0.00,,,0.00,0.000000,,2013-07-02 13:11:00,
2013-07-02 06:43:00,73.0,63.0,-100.00,WNW,294,8.0,18.0,71,0.00,,,0.00,38.000000,,2013-07-02 13:43:00,
2013-07-02 07:43:00,73.0,64.0,-100.00,WNW,296,7.0,15.0,74,0.00,,,0.00,158.000000,,2013-07-02 14:43:00,
2013-07-02 07:53:00,73.0,64.0,-100.00,WNW,296,7.0,15.0,74,0.00,,,0.00,158.000000,,2013-07-02 14:53:00,
2013-07-02 08:02:00,73.0,64.0,-100.00,WNW,296,7.0,15.0,74,0.00,,,0.00,158.000000,,2013-07-02 15:02:00,
2013-07-02 08:11:00,73.0,64.0,-100.00,WNW,296,7.0,15.0,74,0.00,,,0.00,158.000000,,2013-07-02 15:11:00,
2013-07-02 08:44:00,74.0,64.0,-100.00,NW,305,6.0,13.0,72,0.00,,,0.00,179.000000,,2013-07-02 15:44:00,
2013-07-02 08:53:00,74.0,64.0,-100.00,NW,305,6.0,13.0,72,0.00,,,0.00,179.000000,,2013-07-02 15:53:00,
2013-07-02 09:01:00,74.0,64.0,-100.00,NW,305,6.0,13.0,72,0.00,,,0.00,179.000000,,2013-07-02 16:01:00,
2013-07-02 09:11:00,74.0,64.0,-100.00,NW,305,6.0,13.0,72,0.00,,,0.00,179.000000,,2013-07-02 16:11:00,
2013-07-02 09:43:00,78.0,66.0,-100.00,NW,307,6.0,15.0,66,0.00,,,0.00,299.000000,,2013-07-02 16:43:00,
2013-07-02 09:52:00,78.0,66.0,-100.00,NW,307,6.0,15.0,66,0.00,,,0.00,299.000000,,2013-07-02 16:52:00,
2013-07-02 10:02:00,78.0,66.0,-100.00,NW,307,6.0,15.0,66,0.00,,,0.00,299.000000,,2013-07-02 17:02:00,
2013-07-02 10:11:00,78.0,66.0,-100.00,NW,307,6.0,15.0,66,0.00,,,0.00,299.000000,,2013-07-02 17:11:00,
2013-07-02 10:43:00,82.0,68.0,-100.00,WNW,297,6.0,14.0,62,0.00,,,0.00,713.000000,,2013-07-02 17:43:00,
2013-07-02 10:53:00,82.0,68.0,-100.00,WNW,297,6.0,14.0,62,0.00,,,0.00,713.000000,,2013-07-02 17:53:00,
2013-07-02 11:02:00,82.0,68.0,-100.00,WNW,297,6.0,14.0,62,0.00,,,0.00,713.000000,,2013-07-02 18:02:00,
2013-07-02 11:11:00,82.0,68.0,-100.00,WNW,297,6.0,14.0,62,0.00,,,0.00,713.000000,,2013-07-02 18:11:00,
2013-07-02 11:43:00,85.0,66.0,-100.00,NW,307,7.0,13.0,53,0.00,,,0.00,868.000000,,2013-07-02 18:43:00,
2013-07-02 11:53:00,85.0,66.0,-100.00,NW,307,7.0,13.0,53,0.00,,,0.00,868.000000,,2013-07-02 18:53:00,
2013-07-02 12:01:00,85.0,66.0,-100.00,NW,307,7.0,13.0,53,0.00,,,0.00,868.000000,,2013-07-02 19:01:00,
2013-07-02 12:11:00,85.0,66.0,-100.00,NW,307,7.0,13.0,53,0.00,,,0.00,868.000000,,2013-07-02 19:11:00,
2013-07-02 12:43:00,88.0,60.0,-100.00,NW,307,6.0,15.0,39,0.00,,,0.00,980.000000,,2013-07-02 19:43:00,
2013-07-02 12:53:00,88.0,60.0,-100.00,NW,307,6.0,15.0,39,0.00,,,0.00,980.000000,,2013-07-02 19:53:00,
2013-07-02 13:01:00,88.0,60.0,-100.00,NW,307,6.0,15.0,39,0.00,,,0.00,980.000000,,2013-07-02 20:01:00,
2013-07-02 13:11:00,88.0,60.0,-100.00,NW,307,6.0,15.0,39,0.00,,,0.00,980.000000,,2013-07-02 20:11:00,
2013-07-02 13:43:00,89.0,61.0,-100.00,NNW,332,7.0,12.0,39,0.00,,,0.00,1015.000000,,2013-07-02 20:43:00,
2013-07-02 13:52:00,89.0,61.0,-100.00,NNW,332,7.0,12.0,39,0.00,,,0.00,1015.000000,,2013-07-02 20:52:00,
2013-07-02 14:02:00,89.0,61.0,-100.00,NNW,332,7.0,12.0,39,0.00,,,0.00,1015.000000,,2013-07-02 21:02:00,
2013-07-02 14:11:00,89.0,61.0,-100.00,NNW,332,7.0,12.0,39,0.00,,,0.00,1015.000000,,2013-07-02 21:11:00,
2013-07-02 14:44:00,90.0,62.0,-100.00,NW,324,7.0,16.0,39,0.00,,,-99.99,1000.000000,,2013-07-02 21:44:00,
2013-07-02 14:52:00,90.0,62.0,-100.00,NW,324,7.0,16.0,39,0.00,,,-99.99,1000.000000,,2013-07-02 21:52:00,
2013-07-02 15:01:00,90.0,62.0,-100.00,NW,324,7.0,16.0,39,0.00,,,-99.99,1000.000000,,2013-07-02 22:01:00,
2013-07-02 15:11:00,90.0,62.0,-100.00,NW,324,7.0,16.0,39,0.00,,,-99.99,1000.000000,,2013-07-02 22:11:00,
2013-07-02 15:34:00,92.0,58.0,-100.00,NNW,327,8.0,16.0,32,0.00,,,-99.99,953.000000,,2013-07-02 22:34:00,
2013-07-02 15:43:00,92.0,58.0,-100.00,NNW,327,8.0,16.0,32,0.00,,,-99.99,953.000000,,2013-07-02 22:43:00,
2013-07-02 15:53:00,92.0,58.0,-100.00,NNW,327,8.0,16.0,32,0.00,,,-99.99,953.000000,,2013-07-02 22:53:00,
2013-07-02 16:01:00,92.0,58.0,-100.00,NNW,327,8.0,16.0,32,0.00,,,-99.99,953.000000,,2013-07-02 23:01:00,
2013-07-02 16:11:00,92.0,58.0,-100.00,NNW,327,8.0,16.0,32,0.00,,,-99.99,953.000000,,2013-07-02 23:11:00,
2013-07-02 16:44:00,90.0,55.0,-100.00,NW,326,9.0,21.0,31,0.00,,,0.00,836.000000,,2013-07-02 23:44:00,
2013-07-02 16:52:00,90.0,55.0,-100.00,NW,326,9.0,21.0,31,0.00,,,0.00,836.000000,,2013-07-02 23:52:00,
2013-07-02 17:01:00,90.0,55.0,-100.00,NW,326,9.0,21.0,31,0.00,,,0.00,836.000000,,2013-07-03 00:01:00,
2013-07-02 17:11:00,90.0,55.0,-100.00,NW,326,9.0,21.0,31,0.00,,,0.00,836.000000,,2013-07-03 00:11:00,
2013-07-02 17:44:00,89.0,54.0,-100.00,NW,305,8.0,19.0,30,0.00,,,0.00,616.000000,,2013-07-03 00:44:00,
2013-07-02 17:52:00,89.0,54.0,-100.00,NW,305,8.0,19.0,30,0.00,,,0.00,616.000000,,2013-07-03 00:52:00,
2013-07-02 18:01:00,89.0,54.0,-100.00,NW,305,8.0,19.0,30,0.00,,,0.00,616.000000,,2013-07-03 01:01:00,
2013-07-02 18:11:00,89.0,54.0,-100.00,NW,305,8.0,19.0,30,0.00,,,0.00,616.000000,,2013-07-03 01:11:00,
2013-07-02 18:43:00,85.0,51.0,-100.00,NW,313,8.0,16.0,31,0.00,,,0.00,475.000000,,2013-07-03 01:43:00,
2013-07-02 18:59:00,85.0,51.0,-100.00,NW,313,8.0,16.0,31,0.00,,,0.00,475.000000,,2013-07-03 01:59:00,
2013-07-02 19:02:00,85.0,51.0,-100.00,NW,313,8.0,16.0,31,0.00,,,0.00,475.000000,,2013-07-03 02:02:00,
2013-07-02 19:12:00,85.0,51.0,-100.00,NW,313,8.0,16.0,31,0.00,,,0.00,475.000000,,2013-07-03 02:12:00,
2013-07-02 19:45:00,83.0,49.0,-100.00,WNW,297,9.0,20.0,31,0.00,,,0.00,310.000000,,2013-07-03 02:45:00,
2013-07-02 20:02:00,83.0,49.0,-100.00,WNW,297,9.0,20.0,31,0.00,,,0.00,310.000000,,2013-07-03 03:02:00,
2013-07-02 20:12:00,83.0,49.0,-100.00,WNW,297,9.0,20.0,31,0.00,,,0.00,310.000000,,2013-07-03 03:12:00,
2013-07-02 20:36:00,78.0,47.0,-100.00,WNW,287,10.0,25.0,33,0.00,,,0.00,62.000000,,2013-07-03 03:36:00,
2013-07-02 20:49:00,78.0,47.0,-100.00,WNW,287,10.0,25.0,33,0.00,,,0.00,62.000000,,2013-07-03 03:49:00,
2013-07-02 20:58:00,78.0,47.0,-100.00,WNW,287,10.0,25.0,33,0.00,,,0.00,62.000000,,2013-07-03 03:58:00,
2013-07-02 21:01:00,78.0,47.0,-100.00,WNW,287,10.0,25.0,33,0.00,,,0.00,62.000000,,2013-07-03 04:01:00,
2013-07-02 21:11:00,78.0,47.0,-100.00,WNW,287,10.0,25.0,33,0.00,,,0.00,62.000000,,2013-07-03 04:11:00,
2013-07-02 21:43:00,74.0,47.0,-100.00,WNW,295,9.0,19.0,39,0.00,,,0.00,22.000000,,2013-07-03 04:43:00,
2013-07-02 21:52:00,74.0,47.0,-100.00,WNW,295,9.0,19.0,39,0.00,,,0.00,22.000000,,2013-07-03 04:52:00,
2013-07-02 22:01:00,74.0,47.0,-100.00,WNW,295,9.0,19.0,39,0.00,,,0.00,22.000000,,2013-07-03 05:01:00,
2013-07-02 22:11:00,74.0,47.0,-100.00,WNW,295,9.0,19.0,39,0.00,,,0.00,22.000000,,2013-07-03 05:11:00,
2013-07-02 22:48:00,73.0,49.0,-100.00,WNW,286,10.0,21.0,43,0.00,,,0.00,0.000000,,2013-07-03 05:48:00,
2013-07-02 22:58:00,73.0,49.0,-100.00,WNW,286,10.0,21.0,43,0.00,,,0.00,0.000000,,2013-07-03 05:58:00,
2013-07-02 23:02:00,73.0,49.0,-100.00,WNW,286,10.0,21.0,43,0.00,,,0.00,0.000000,,2013-07-03 06:02:00,
2013-07-02 23:12:00,73.0,49.0,-100.00,WNW,286,10.0,21.0,43,0.00,,,0.00,0.000000,,2013-07-03 06:12:00,
2013-07-02 23:50:00,71.0,49.0,-100.00,WNW,284,9.0,19.0,46,0.00,,,0.00,0.000000,,2013-07-03 06:50:00,